Time,TemperatureF,DewpointF,PressureIn,WindDirection,WindDirectionDegrees,WindSpeedMPH,WindSpeedGustMPH,Humidity,HourlyPrecipIn,Conditions,Clouds,dailyrainin,SoftwareType,DateUTC
2013-04-10 00:03:00,31.7,29.6,29.98,NE,46,0.0,0.0,92,0.00,,,0.00,Wunderground v.1.15,2013-04-10 05:03:00,
2013-04-10 00:09:00,31.8,29.7,29.99,NE,46,0.0,0.0,92,0.00,,,0.00,Wunderground v.1.15,2013-04-10 05:09:00,
2013-04-10 00:14:00,31.8,29.7,30.00,NE,46,0.0,0.0,92,0.00,,,0.00,Wunderground v.1.15,2013-04-10 05:14:00,
2013-04-10 00:19:00,31.8,29.7,29.99,NE,46,0.0,0.0,92,0.00,,,0.00,Wunderground v.1.15,2013-04-10 05:19:00,
2013-04-10 00:27:00,31.8,29.7,30.00,NE,46,0.0,0.0,92,0.00,,,0.00,Wunderground v.1.15,2013-04-10 05:27:00,
2013-04-10 00:32:00,31.8,29.7,30.00,NE,46,0.0,0.0,92,0.00,,,0.00,Wunderground v.1.15,2013-04-10 05:32:00,
2013-04-10 00:37:00,31.8,29.7,30.00,NE,46,0.0,0.0,92,0.00,,,0.00,Wunderground v.1.15,2013-04-10 05:37:00,
2013-04-10 00:43:00,31.8,29.7,29.98,NE,46,0.0,0.0,92,0.00,,,0.00,Wunderground v.1.15,2013-04-10 05:43:00,
2013-04-10 00:49:00,31.7,29.6,29.99,NE,46,0.0,0.0,92,0.00,,,0.00,Wunderground v.1.15,2013-04-10 05:49:00,
2013-04-10 00:57:00,31.7,29.6,29.99,NE,46,0.0,0.0,92,0.00,,,0.00,Wunderground v.1.15,2013-04-10 05:57:00,
2013-04-10 01:02:00,31.7,29.6,29.98,NE,46,0.0,0.0,92,0.00,,,0.00,Wunderground v.1.15,2013-04-10 06:02:00,
2013-04-10 01:07:00,31.7,29.6,29.97,NE,46,0.0,0.0,92,0.00,,,0.00,Wunderground v.1.15,2013-04-10 06:07:00,
2013-04-10 01:13:00,31.7,29.6,29.97,NE,46,0.0,0.0,92,0.00,,,0.00,Wunderground v.1.15,2013-04-10 06:13:00,
2013-04-10 01:18:00,31.7,29.6,29.98,NE,46,0.0,0.0,92,0.00,,,0.00,Wunderground v.1.15,2013-04-10 06:18:00,
2013-04-10 01:24:00,31.6,29.5,29.98,NE,46,0.0,0.0,92,0.00,,,0.00,Wunderground v.1.15,2013-04-10 06:24:00,
2013-04-10 01:29:00,31.6,29.5,29.98,NE,46,0.0,0.0,92,0.00,,,0.00,Wunderground v.1.15,2013-04-10 06:29:00,
2013-04-10 01:34:00,31.5,29.4,30.00,NE,46,0.0,0.0,92,0.00,,,0.00,Wunderground v.1.15,2013-04-10 06:34:00,
2013-04-10 01:39:00,31.5,29.4,30.02,NE,46,0.0,0.0,92,0.00,,,0.00,Wunderground v.1.15,2013-04-10 06:39:00,
2013-04-10 01:44:00,31.5,29.4,30.02,NE,46,0.0,0.0,92,0.00,,,0.00,Wunderground v.1.15,2013-04-10 06:44:00,
2013-04-10 01:49:00,31.4,29.3,30.03,NE,46,0.0,0.0,92,0.00,,,0.00,Wunderground v.1.15,2013-04-10 06:49:00,
2013-04-10 01:57:00,31.4,29.3,30.01,NE,46,0.0,0.0,92,0.00,,,0.00,Wunderground v.1.15,2013-04-10 06:57:00,
2013-04-10 02:02:00,31.3,29.2,30.02,NE,46,0.0,0.0,92,0.00,,,0.00,Wunderground v.1.15,2013-04-10 07:02:00,
2013-04-10 02:07:00,31.3,29.2,30.01,NE,46,0.0,0.0,92,0.00,,,0.00,Wunderground v.1.15,2013-04-10 07:07:00,
2013-04-10 02:12:00,31.2,29.1,30.02,NE,46,0.0,0.0,92,0.00,,,0.00,Wunderground v.1.15,2013-04-10 07:12:00,
2013-04-10 02:18:00,31.1,29.0,30.01,NE,46,0.0,0.0,92,0.00,,,0.00,Wunderground v.1.15,2013-04-10 07:18:00,
2013-04-10 02:23:00,31.0,28.9,30.01,NE,46,0.0,0.0,92,0.00,,,0.00,Wunderground v.1.15,2013-04-10 07:23:00,
2013-04-10 02:28:00,30.9,28.9,30.01,NE,46,0.0,0.0,92,0.00,,,0.00,Wunderground v.1.15,2013-04-10 07:28:00,
2013-04-10 02:33:00,30.8,28.8,30.02,NE,46,0.0,0.0,92,0.00,,,0.00,Wunderground v.1.15,2013-04-10 07:33:00,
2013-04-10 02:38:00,30.8,28.8,30.04,NE,46,0.0,0.0,92,0.00,,,0.00,Wunderground v.1.15,2013-04-10 07:38:00,
2013-04-10 02:43:00,30.8,28.8,30.03,NE,46,0.0,0.0,92,0.00,,,0.00,Wunderground v.1.15,2013-04-10 07:43:00,
2013-04-10 02:48:00,30.8,28.8,30.03,NE,46,0.0,0.0,92,0.00,,,0.00,Wunderground v.1.15,2013-04-10 07:48:00,
2013-04-10 02:53:00,30.7,28.7,30.03,NE,46,0.0,0.0,92,0.00,,,0.00,Wunderground v.1.15,2013-04-10 07:53:00,
2013-04-10 02:58:00,30.6,28.6,30.02,NE,46,0.0,0.0,92,0.00,,,0.00,Wunderground v.1.15,2013-04-10 07:58:00,
2013-04-10 03:03:00,30.6,28.6,30.02,NE,46,0.0,0.0,92,0.00,,,0.00,Wunderground v.1.15,2013-04-10 08:03:00,
2013-04-10 03:08:00,30.6,28.6,30.01,NE,46,0.0,0.0,92,0.00,,,0.00,Wunderground v.1.15,2013-04-10 08:08:00,
2013-04-10 03:13:00,30.6,28.6,30.01,NE,46,0.0,0.0,92,0.00,,,0.00,Wunderground v.1.15,2013-04-10 08:13:00,
2013-04-10 03:18:00,30.6,28.6,30.00,NE,46,0.0,0.0,92,0.00,,,0.00,Wunderground v.1.15,2013-04-10 08:18:00,
2013-04-10 03:23:00,30.5,28.5,30.00,NE,46,0.0,0.0,92,0.00,,,0.00,Wunderground v.1.15,2013-04-10 08:23:00,
2013-04-10 03:28:00,30.4,28.4,30.00,NE,46,0.0,0.0,92,0.00,,,0.00,Wunderground v.1.15,2013-04-10 08:28:00,
2013-04-10 03:33:00,30.3,28.3,30.01,NE,46,0.0,0.0,92,0.00,,,0.00,Wunderground v.1.15,2013-04-10 08:33:00,
2013-04-10 03:38:00,30.3,28.3,30.01,NE,46,0.0,0.0,92,0.00,,,0.00,Wunderground v.1.15,2013-04-10 08:38:00,
2013-04-10 03:43:00,30.2,28.2,30.01,NE,46,0.0,0.0,92,0.00,,,0.00,Wunderground v.1.15,2013-04-10 08:43:00,
2013-04-10 03:48:00,30.0,28.0,30.01,NE,46,0.0,0.0,92,0.00,,,0.00,Wunderground v.1.15,2013-04-10 08:48:00,
2013-04-10 03:53:00,30.0,28.0,30.01,NE,46,0.0,0.0,92,0.00,,,0.00,Wunderground v.1.15,2013-04-10 08:53:00,
2013-04-10 03:59:00,30.0,28.0,29.99,NE,46,0.0,0.0,92,0.00,,,0.00,Wunderground v.1.15,2013-04-10 08:59:00,
2013-04-10 04:04:00,29.9,27.9,29.98,NE,46,0.0,0.0,92,0.00,,,0.00,Wunderground v.1.15,2013-04-10 09:04:00,
2013-04-10 04:09:00,29.7,27.7,29.95,NE,46,0.0,0.0,92,0.00,,,0.00,Wunderground v.1.15,2013-04-10 09:09:00,
2013-04-10 04:14:00,29.5,27.5,29.92,NE,46,0.0,0.0,92,0.00,,,0.00,Wunderground v.1.15,2013-04-10 09:14:00,
2013-04-10 04:19:00,29.5,27.5,29.93,NE,46,0.0,0.0,92,0.00,,,0.00,Wunderground v.1.15,2013-04-10 09:19:00,
2013-04-10 04:24:00,29.5,27.5,29.91,NE,46,0.0,0.0,92,0.00,,,0.00,Wunderground v.1.15,2013-04-10 09:24:00,
2013-04-10 04:29:00,29.5,27.5,29.95,NE,46,0.0,0.0,92,0.00,,,0.00,Wunderground v.1.15,2013-04-10 09:29:00,
2013-04-10 04:34:00,29.6,27.6,29.95,NE,46,0.0,0.0,92,0.00,,,0.00,Wunderground v.1.15,2013-04-10 09:34:00,
2013-04-10 04:39:00,29.4,27.4,29.97,NE,46,0.0,0.0,92,0.00,,,0.00,Wunderground v.1.15,2013-04-10 09:39:00,
2013-04-10 04:44:00,29.5,27.5,29.98,NE,46,0.0,0.0,92,0.00,,,0.00,Wunderground v.1.15,2013-04-10 09:44:00,
2013-04-10 04:49:00,29.4,27.4,29.98,NE,46,0.0,0.0,92,0.00,,,0.00,Wunderground v.1.15,2013-04-10 09:49:00,
2013-04-10 04:54:00,29.4,27.4,29.97,NE,46,0.0,0.0,92,0.00,,,0.00,Wunderground v.1.15,2013-04-10 09:54:00,
2013-04-10 04:59:00,29.3,27.0,29.95,NE,46,0.0,0.0,91,0.00,,,0.00,Wunderground v.1.15,2013-04-10 09:59:00,
2013-04-10 05:04:00,29.3,27.0,29.95,NE,46,0.0,0.0,91,0.00,,,0.00,Wunderground v.1.15,2013-04-10 10:04:00,
2013-04-10 05:09:00,29.3,27.0,29.96,NE,46,0.0,0.0,91,0.00,,,0.00,Wunderground v.1.15,2013-04-10 10:09:00,
2013-04-10 05:14:00,29.3,27.0,29.97,NE,46,0.0,0.0,91,0.00,,,0.00,Wunderground v.1.15,2013-04-10 10:14:00,
2013-04-10 05:19:00,29.3,27.0,29.97,NE,46,0.0,0.0,91,0.00,,,0.00,Wunderground v.1.15,2013-04-10 10:19:00,
2013-04-10 05:24:00,29.3,27.0,29.98,NE,46,0.0,0.0,91,0.00,,,0.00,Wunderground v.1.15,2013-04-10 10:24:00,
2013-04-10 05:29:00,29.3,27.0,29.98,NE,46,0.0,0.0,91,0.00,,,0.00,Wunderground v.1.15,2013-04-10 10:29:00,
2013-04-10 05:34:00,29.3,27.0,29.99,NE,46,0.0,0.0,91,0.00,,,0.00,Wunderground v.1.15,2013-04-10 10:34:00,
2013-04-10 05:39:00,29.2,26.9,29.99,NE,46,0.0,0.0,91,0.00,,,0.00,Wunderground v.1.15,2013-04-10 10:39:00,
2013-04-10 05:44:00,29.3,27.0,30.00,NE,46,0.0,0.0,91,0.00,,,0.00,Wunderground v.1.15,2013-04-10 10:44:00,
2013-04-10 05:49:00,29.3,27.0,30.00,NE,46,0.0,0.0,91,0.00,,,0.00,Wunderground v.1.15,2013-04-10 10:49:00,
2013-04-10 05:54:00,29.3,27.0,30.00,NE,46,0.0,0.0,91,0.00,,,0.00,Wunderground v.1.15,2013-04-10 10:54:00,
2013-04-10 05:59:00,29.4,27.1,30.01,NE,46,0.0,0.0,91,0.00,,,0.00,Wunderground v.1.15,2013-04-10 10:59:00,
2013-04-10 06:04:00,29.3,27.0,30.00,NE,46,0.0,0.0,91,0.00,,,0.00,Wunderground v.1.15,2013-04-10 11:04:00,
2013-04-10 06:09:00,29.3,27.0,30.00,NE,46,0.0,0.0,91,0.00,,,0.00,Wunderground v.1.15,2013-04-10 11:09:00,
2013-04-10 06:14:00,29.2,26.9,29.99,NE,46,0.0,0.0,91,0.00,,,0.00,Wunderground v.1.15,2013-04-10 11:14:00,
2013-04-10 06:19:00,29.1,26.8,29.97,NE,46,0.0,0.0,91,0.00,,,0.00,Wunderground v.1.15,2013-04-10 11:19:00,
2013-04-10 06:24:00,29.1,26.8,29.97,NE,46,0.0,0.0,91,0.00,,,0.00,Wunderground v.1.15,2013-04-10 11:24:00,
2013-04-10 06:29:00,29.0,26.7,29.96,NE,46,0.0,0.0,91,0.00,,,0.00,Wunderground v.1.15,2013-04-10 11:29:00,
2013-04-10 06:34:00,29.0,26.7,29.95,NE,46,0.0,0.0,91,0.00,,,0.00,Wunderground v.1.15,2013-04-10 11:34:00,
2013-04-10 06:39:00,29.0,26.7,29.95,NE,46,0.0,0.0,91,0.00,,,0.00,Wunderground v.1.15,2013-04-10 11:39:00,
2013-04-10 06:44:00,29.0,26.7,29.95,NE,46,0.0,0.0,91,0.00,,,0.00,Wunderground v.1.15,2013-04-10 11:44:00,
2013-04-10 06:49:00,28.9,26.6,29.94,NE,46,0.0,0.0,91,0.00,,,0.00,Wunderground v.1.15,2013-04-10 11:49:00,
2013-04-10 06:54:00,28.9,26.6,29.94,NE,46,0.0,0.0,91,0.00,,,0.00,Wunderground v.1.15,2013-04-10 11:54:00,
2013-04-10 06:59:00,28.9,26.6,29.95,NE,46,0.0,0.0,91,0.00,,,0.00,Wunderground v.1.15,2013-04-10 11:59:00,
2013-04-10 07:04:00,28.9,26.6,29.94,NE,46,0.0,0.0,91,0.00,,,0.00,Wunderground v.1.15,2013-04-10 12:04:00,
2013-04-10 07:09:00,28.8,26.5,29.96,NE,46,0.0,0.0,91,0.00,,,0.00,Wunderground v.1.15,2013-04-10 12:09:00,
2013-04-10 07:14:00,28.8,26.5,29.96,NE,46,0.0,0.0,91,0.00,,,0.00,Wunderground v.1.15,2013-04-10 12:14:00,
2013-04-10 07:20:00,28.9,26.6,29.97,NE,46,0.0,0.0,91,0.00,,,0.00,Wunderground v.1.15,2013-04-10 12:20:00,
2013-04-10 07:25:00,28.9,26.6,29.97,NE,46,0.0,0.0,91,0.00,,,0.00,Wunderground v.1.15,2013-04-10 12:25:00,
2013-04-10 07:30:00,28.8,26.5,29.98,NE,46,0.0,0.0,91,0.00,,,0.00,Wunderground v.1.15,2013-04-10 12:30:00,
2013-04-10 07:35:00,28.9,26.6,29.98,NE,46,0.0,0.0,91,0.00,,,0.00,Wunderground v.1.15,2013-04-10 12:35:00,
2013-04-10 07:40:00,28.9,26.6,29.98,NE,46,0.0,0.0,91,0.00,,,0.00,Wunderground v.1.15,2013-04-10 12:40:00,
2013-04-10 07:45:00,28.8,26.5,29.98,NE,46,0.0,0.0,91,0.00,,,0.00,Wunderground v.1.15,2013-04-10 12:45:00,
2013-04-10 07:50:00,28.8,26.5,29.99,NE,46,0.0,0.0,91,0.00,,,0.00,Wunderground v.1.15,2013-04-10 12:50:00,
2013-04-10 07:55:00,28.8,26.5,29.99,NE,46,0.0,0.0,91,0.00,,,0.00,Wunderground v.1.15,2013-04-10 12:55:00,
2013-04-10 08:00:00,28.8,26.5,29.99,NE,46,0.0,0.0,91,0.00,,,0.00,Wunderground v.1.15,2013-04-10 13:00:00,
2013-04-10 08:05:00,28.8,26.5,30.00,NE,46,0.0,0.0,91,0.00,,,0.00,Wunderground v.1.15,2013-04-10 13:05:00,
2013-04-10 08:10:00,28.8,26.5,30.00,NE,46,0.0,0.0,91,0.00,,,0.00,Wunderground v.1.15,2013-04-10 13:10:00,
2013-04-10 08:15:00,28.8,26.5,29.99,NE,46,0.0,0.0,91,0.00,,,0.00,Wunderground v.1.15,2013-04-10 13:15:00,
2013-04-10 08:20:00,28.8,26.5,29.99,NE,46,0.0,0.0,91,0.00,,,0.00,Wunderground v.1.15,2013-04-10 13:20:00,
2013-04-10 08:25:00,28.8,26.5,29.99,NE,46,0.0,0.0,91,0.00,,,0.00,Wunderground v.1.15,2013-04-10 13:25:00,
2013-04-10 08:30:00,28.8,26.5,29.98,NE,46,0.0,0.0,91,0.00,,,0.00,Wunderground v.1.15,2013-04-10 13:30:00,
2013-04-10 08:35:00,28.8,26.5,29.98,NE,46,0.0,0.0,91,0.00,,,0.00,Wunderground v.1.15,2013-04-10 13:35:00,
2013-04-10 08:40:00,28.8,26.5,29.98,NE,46,0.0,0.0,91,0.00,,,0.00,Wunderground v.1.15,2013-04-10 13:40:00,
2013-04-10 08:45:00,28.9,26.6,29.99,NE,46,0.0,0.0,91,0.00,,,0.00,Wunderground v.1.15,2013-04-10 13:45:00,
2013-04-10 08:50:00,28.9,26.6,29.99,NE,46,0.0,0.0,91,0.00,,,0.00,Wunderground v.1.15,2013-04-10 13:50:00,
2013-04-10 08:55:00,28.9,26.6,29.98,NE,46,0.0,0.0,91,0.00,,,0.00,Wunderground v.1.15,2013-04-10 13:55:00,
2013-04-10 09:00:00,28.8,26.5,29.98,NE,46,0.0,0.0,91,0.00,,,0.00,Wunderground v.1.15,2013-04-10 14:00:00,
2013-04-10 09:05:00,28.8,26.5,29.98,NE,46,0.0,0.0,91,0.00,,,0.00,Wunderground v.1.15,2013-04-10 14:05:00,
2013-04-10 09:10:00,28.9,26.6,29.97,NE,46,0.0,0.0,91,0.00,,,0.00,Wunderground v.1.15,2013-04-10 14:10:00,
2013-04-10 09:15:00,28.9,26.6,29.98,NE,46,0.0,0.0,91,0.00,,,0.00,Wunderground v.1.15,2013-04-10 14:15:00,
2013-04-10 09:20:00,29.0,26.7,29.97,NE,46,0.0,0.0,91,0.00,,,0.00,Wunderground v.1.15,2013-04-10 14:20:00,
2013-04-10 09:25:00,29.0,26.7,29.97,NE,46,0.0,0.0,91,0.00,,,0.00,Wunderground v.1.15,2013-04-10 14:25:00,
2013-04-10 09:30:00,29.0,26.7,29.98,NE,46,0.0,0.0,91,0.00,,,0.00,Wunderground v.1.15,2013-04-10 14:30:00,
2013-04-10 09:35:00,29.0,26.7,29.97,NE,46,0.0,0.0,91,0.00,,,0.00,Wunderground v.1.15,2013-04-10 14:35:00,
2013-04-10 09:40:00,29.0,26.7,29.99,NE,46,0.0,0.0,91,0.00,,,0.00,Wunderground v.1.15,2013-04-10 14:40:00,
2013-04-10 09:45:00,29.0,26.7,29.99,NE,46,0.0,0.0,91,0.00,,,0.00,Wunderground v.1.15,2013-04-10 14:45:00,
2013-04-10 09:50:00,28.9,26.6,29.99,NE,46,0.0,0.0,91,0.00,,,0.00,Wunderground v.1.15,2013-04-10 14:50:00,
2013-04-10 09:55:00,28.9,26.6,29.99,NE,46,0.0,0.0,91,0.00,,,0.00,Wunderground v.1.15,2013-04-10 14:55:00,
2013-04-10 10:00:00,28.9,26.6,29.99,NE,46,0.0,0.0,91,0.00,,,0.00,Wunderground v.1.15,2013-04-10 15:00:00,
2013-04-10 10:05:00,28.9,26.6,29.99,NE,46,0.0,0.0,91,0.00,,,0.00,Wunderground v.1.15,2013-04-10 15:05:00,
2013-04-10 10:10:00,28.9,26.6,29.98,NE,46,0.0,0.0,91,0.00,,,0.00,Wunderground v.1.15,2013-04-10 15:10:00,
2013-04-10 10:17:00,28.9,26.9,29.97,NE,46,0.0,0.0,92,0.00,,,0.00,Wunderground v.1.15,2013-04-10 15:17:00,
2013-04-10 10:22:00,28.9,26.9,29.95,NE,46,0.0,0.0,92,0.00,,,0.00,Wunderground v.1.15,2013-04-10 15:22:00,
2013-04-10 10:27:00,29.0,27.0,29.94,NE,46,0.0,0.0,92,0.00,,,0.00,Wunderground v.1.15,2013-04-10 15:27:00,
2013-04-10 10:32:00,29.1,27.1,29.97,NE,46,0.0,0.0,92,0.00,,,0.00,Wunderground v.1.15,2013-04-10 15:32:00,
2013-04-10 10:37:00,29.2,27.2,29.98,NE,46,0.0,0.0,92,0.00,,,0.00,Wunderground v.1.15,2013-04-10 15:37:00,
2013-04-10 10:42:00,29.3,27.3,29.99,NE,46,0.0,0.0,92,0.00,,,0.00,Wunderground v.1.15,2013-04-10 15:42:00,
2013-04-10 10:47:00,29.3,27.3,29.99,NE,46,0.0,0.0,92,0.00,,,0.00,Wunderground v.1.15,2013-04-10 15:47:00,
2013-04-10 10:52:00,29.3,27.3,29.99,NE,46,0.0,0.0,92,0.00,,,0.00,Wunderground v.1.15,2013-04-10 15:52:00,
2013-04-10 10:57:00,29.2,27.2,29.99,NE,46,0.0,0.0,92,0.00,,,0.00,Wunderground v.1.15,2013-04-10 15:57:00,
2013-04-10 11:02:00,29.3,27.3,29.99,NE,46,0.0,0.0,92,0.00,,,0.00,Wunderground v.1.15,2013-04-10 16:02:00,
2013-04-10 11:07:00,29.4,27.4,29.99,NE,46,0.0,0.0,92,0.00,,,0.00,Wunderground v.1.15,2013-04-10 16:07:00,
2013-04-10 11:12:00,29.4,27.4,29.99,NE,46,0.0,0.0,92,0.00,,,0.00,Wunderground v.1.15,2013-04-10 16:12:00,
2013-04-10 11:17:00,29.5,27.5,29.99,NE,46,0.0,0.0,92,0.00,,,0.00,Wunderground v.1.15,2013-04-10 16:17:00,
2013-04-10 11:23:00,29.7,27.7,29.99,NE,46,0.0,0.0,92,0.00,,,0.00,Wunderground v.1.15,2013-04-10 16:23:00,
2013-04-10 11:28:00,29.8,27.8,29.99,NE,46,0.0,0.0,92,0.00,,,0.00,Wunderground v.1.15,2013-04-10 16:28:00,
2013-04-10 11:33:00,29.9,27.9,30.00,NE,46,0.0,0.0,92,0.00,,,0.00,Wunderground v.1.15,2013-04-10 16:33:00,
2013-04-10 11:38:00,29.9,27.9,30.00,NE,46,0.0,0.0,92,0.00,,,0.00,Wunderground v.1.15,2013-04-10 16:38:00,
2013-04-10 11:43:00,29.8,27.8,30.00,NE,46,0.0,0.0,92,0.00,,,0.00,Wunderground v.1.15,2013-04-10 16:43:00,
2013-04-10 11:48:00,29.9,27.9,30.00,NE,46,0.0,0.0,92,0.00,,,0.00,Wunderground v.1.15,2013-04-10 16:48:00,
2013-04-10 11:53:00,29.9,27.9,30.01,NE,46,0.0,0.0,92,0.00,,,0.00,Wunderground v.1.15,2013-04-10 16:53:00,
2013-04-10 11:58:00,29.9,27.9,30.01,NE,46,0.0,0.0,92,0.00,,,0.00,Wunderground v.1.15,2013-04-10 16:58:00,
2013-04-10 12:03:00,29.9,27.9,30.02,NE,46,0.0,0.0,92,0.00,,,0.00,Wunderground v.1.15,2013-04-10 17:03:00,
2013-04-10 12:08:00,29.8,27.8,30.03,NE,46,0.0,0.0,92,0.00,,,0.00,Wunderground v.1.15,2013-04-10 17:08:00,
2013-04-10 12:13:00,29.9,27.9,30.03,NE,46,0.0,0.0,92,0.00,,,0.00,Wunderground v.1.15,2013-04-10 17:13:00,
2013-04-10 12:19:00,30.0,28.0,30.03,NE,46,0.0,0.0,92,0.00,,,0.00,Wunderground v.1.15,2013-04-10 17:19:00,
2013-04-10 12:24:00,30.0,28.0,30.03,NE,46,0.0,0.0,92,0.00,,,0.00,Wunderground v.1.15,2013-04-10 17:24:00,
2013-04-10 12:29:00,30.1,28.1,30.03,NE,46,0.0,0.0,92,0.00,,,0.00,Wunderground v.1.15,2013-04-10 17:29:00,
2013-04-10 12:33:00,30.0,28.0,30.03,NE,46,0.0,0.0,92,0.00,,,0.00,Wunderground v.1.15,2013-04-10 17:33:00,
2013-04-10 12:39:00,30.1,28.1,30.03,NE,46,0.0,0.0,92,0.00,,,0.00,Wunderground v.1.15,2013-04-10 17:39:00,
2013-04-10 12:44:00,30.0,28.0,30.03,NE,46,0.0,0.0,92,0.00,,,0.00,Wunderground v.1.15,2013-04-10 17:44:00,
2013-04-10 12:49:00,29.9,27.9,30.03,NE,46,0.0,0.0,92,0.00,,,0.00,Wunderground v.1.15,2013-04-10 17:49:00,
2013-04-10 12:54:00,29.8,27.8,30.02,NE,46,0.0,0.0,92,0.00,,,0.00,Wunderground v.1.15,2013-04-10 17:54:00,
2013-04-10 12:59:00,29.8,27.8,30.01,NE,46,0.0,0.0,92,0.00,,,0.00,Wunderground v.1.15,2013-04-10 17:59:00,
2013-04-10 13:04:00,29.8,27.8,30.00,NE,46,0.0,0.0,92,0.00,,,0.00,Wunderground v.1.15,2013-04-10 18:04:00,
2013-04-10 13:09:00,29.7,27.7,30.00,NE,46,0.0,0.0,92,0.00,,,0.00,Wunderground v.1.15,2013-04-10 18:09:00,
2013-04-10 13:14:00,29.7,27.7,30.01,NE,46,0.0,0.0,92,0.00,,,0.00,Wunderground v.1.15,2013-04-10 18:14:00,
2013-04-10 13:19:00,29.8,27.8,30.01,NE,46,0.0,0.0,92,0.00,,,0.00,Wunderground v.1.15,2013-04-10 18:19:00,
2013-04-10 13:24:00,29.7,27.7,30.01,NE,46,0.0,0.0,92,0.00,,,0.00,Wunderground v.1.15,2013-04-10 18:24:00,
2013-04-10 13:29:00,29.7,27.7,30.01,NE,46,0.0,0.0,92,0.00,,,0.00,Wunderground v.1.15,2013-04-10 18:29:00,
2013-04-10 13:34:00,29.7,27.7,30.01,NE,46,0.0,0.0,92,0.00,,,0.00,Wunderground v.1.15,2013-04-10 18:34:00,
2013-04-10 13:39:00,29.6,27.6,30.01,NE,46,0.0,0.0,92,0.00,,,0.00,Wunderground v.1.15,2013-04-10 18:39:00,
2013-04-10 13:44:00,29.7,27.7,30.01,NE,46,0.0,0.0,92,0.00,,,0.00,Wunderground v.1.15,2013-04-10 18:44:00,
2013-04-10 13:49:00,29.8,27.8,30.01,NE,46,0.0,0.0,92,0.00,,,0.00,Wunderground v.1.15,2013-04-10 18:49:00,
2013-04-10 13:54:00,29.8,27.8,30.01,NE,46,0.0,0.0,92,0.00,,,0.00,Wunderground v.1.15,2013-04-10 18:54:00,
2013-04-10 13:59:00,29.8,27.8,30.00,NE,46,0.0,0.0,92,0.00,,,0.00,Wunderground v.1.15,2013-04-10 18:59:00,
2013-04-10 14:04:00,29.7,27.7,30.00,NE,46,0.0,0.0,92,0.00,,,0.00,Wunderground v.1.15,2013-04-10 19:04:00,
2013-04-10 14:09:00,29.7,27.7,30.00,NE,46,0.0,0.0,92,0.00,,,0.00,Wunderground v.1.15,2013-04-10 19:09:00,
2013-04-10 14:14:00,29.7,27.7,30.00,NE,46,0.0,0.0,92,0.00,,,0.00,Wunderground v.1.15,2013-04-10 19:14:00,
2013-04-10 14:19:00,29.8,27.8,29.99,NE,46,0.0,0.0,92,0.00,,,0.00,Wunderground v.1.15,2013-04-10 19:19:00,
2013-04-10 14:24:00,29.9,27.9,29.98,NE,46,0.0,0.0,92,0.00,,,0.00,Wunderground v.1.15,2013-04-10 19:24:00,
2013-04-10 14:29:00,29.8,27.8,29.98,NE,46,0.0,0.0,92,0.00,,,0.00,Wunderground v.1.15,2013-04-10 19:29:00,
2013-04-10 14:35:00,29.8,27.8,29.99,NE,46,0.0,0.0,92,0.00,,,0.00,Wunderground v.1.15,2013-04-10 19:35:00,
2013-04-10 14:40:00,29.7,27.7,29.99,NE,46,0.0,0.0,92,3.33,,,0.20,Wunderground v.1.15,2013-04-10 19:40:00,
2013-04-10 14:45:00,29.8,27.8,29.98,NE,46,0.0,0.0,92,0.13,,,0.23,Wunderground v.1.15,2013-04-10 19:45:00,
2013-04-10 14:50:00,29.8,27.8,29.98,NE,46,0.0,0.0,92,0.06,,,0.23,Wunderground v.1.15,2013-04-10 19:50:00,
2013-04-10 14:55:00,29.8,27.8,29.98,NE,46,0.0,0.0,92,0.04,,,0.23,Wunderground v.1.15,2013-04-10 19:55:00,
2013-04-10 15:00:00,29.9,27.9,29.98,NE,46,0.0,0.0,92,0.00,,,0.23,Wunderground v.1.15,2013-04-10 20:00:00,
2013-04-10 15:05:00,29.9,27.9,29.97,NE,46,0.0,0.0,92,0.00,,,0.23,Wunderground v.1.15,2013-04-10 20:05:00,
2013-04-10 15:11:00,30.0,28.0,29.98,NE,46,0.0,0.0,92,0.00,,,0.23,Wunderground v.1.15,2013-04-10 20:11:00,
2013-04-10 15:18:00,30.0,28.0,29.99,NE,46,0.0,0.0,92,0.00,,,0.23,Wunderground v.1.15,2013-04-10 20:18:00,
2013-04-10 15:23:00,29.8,27.5,29.99,NE,46,0.0,0.0,91,0.00,,,0.23,Wunderground v.1.15,2013-04-10 20:23:00,
2013-04-10 15:28:00,29.8,27.5,29.99,NE,46,0.0,0.0,91,0.00,,,0.23,Wunderground v.1.15,2013-04-10 20:28:00,
2013-04-10 15:33:00,29.9,27.9,29.99,NE,46,0.0,0.0,92,0.00,,,0.23,Wunderground v.1.15,2013-04-10 20:33:00,
2013-04-10 15:38:00,29.9,27.9,29.98,NE,46,0.0,0.0,92,0.00,,,0.23,Wunderground v.1.15,2013-04-10 20:38:00,
2013-04-10 15:43:00,29.9,27.9,29.97,NE,46,0.0,0.0,92,0.00,,,0.23,Wunderground v.1.15,2013-04-10 20:43:00,
2013-04-10 15:48:00,30.0,28.0,29.97,NE,46,0.0,0.0,92,0.00,,,0.23,Wunderground v.1.15,2013-04-10 20:48:00,
2013-04-10 15:53:00,29.9,27.9,29.96,NE,46,0.0,0.0,92,0.00,,,0.23,Wunderground v.1.15,2013-04-10 20:53:00,
2013-04-10 15:58:00,29.9,27.9,29.97,NE,46,0.0,0.0,92,0.00,,,0.23,Wunderground v.1.15,2013-04-10 20:58:00,
2013-04-10 16:03:00,29.9,27.6,29.97,NE,46,0.0,0.0,91,0.00,,,0.23,Wunderground v.1.15,2013-04-10 21:03:00,
2013-04-10 16:08:00,29.9,27.9,29.97,NE,46,0.0,0.0,92,0.00,,,0.23,Wunderground v.1.15,2013-04-10 21:08:00,
2013-04-10 16:13:00,30.0,28.0,29.96,NE,46,0.0,0.0,92,0.00,,,0.23,Wunderground v.1.15,2013-04-10 21:13:00,
2013-04-10 16:18:00,29.9,27.9,29.97,NE,46,0.0,0.0,92,0.00,,,0.23,Wunderground v.1.15,2013-04-10 21:18:00,
2013-04-10 16:23:00,29.9,27.6,29.96,NE,46,0.0,0.0,91,0.00,,,0.23,Wunderground v.1.15,2013-04-10 21:23:00,
2013-04-10 16:28:00,29.9,27.9,29.96,NE,46,0.0,0.0,92,0.00,,,0.23,Wunderground v.1.15,2013-04-10 21:28:00,
2013-04-10 16:33:00,30.0,28.0,29.95,NE,46,0.0,0.0,92,0.00,,,0.23,Wunderground v.1.15,2013-04-10 21:33:00,
2013-04-10 16:38:00,30.1,28.1,29.95,NE,46,0.0,0.0,92,0.00,,,0.23,Wunderground v.1.15,2013-04-10 21:38:00,
2013-04-10 16:43:00,30.0,28.0,29.95,NE,46,0.0,0.0,92,0.00,,,0.23,Wunderground v.1.15,2013-04-10 21:43:00,
2013-04-10 16:48:00,29.9,27.9,29.95,NE,46,0.0,0.0,92,0.00,,,0.23,Wunderground v.1.15,2013-04-10 21:48:00,
2013-04-10 16:53:00,30.0,28.0,29.94,NE,46,0.0,0.0,92,0.00,,,0.23,Wunderground v.1.15,2013-04-10 21:53:00,
2013-04-10 16:58:00,30.0,28.0,29.94,NE,46,0.0,0.0,92,0.00,,,0.23,Wunderground v.1.15,2013-04-10 21:58:00,
2013-04-10 17:03:00,30.0,28.0,29.93,NE,46,0.0,0.0,92,0.00,,,0.23,Wunderground v.1.15,2013-04-10 22:03:00,
2013-04-10 17:08:00,30.0,28.0,29.92,NE,46,0.0,0.0,92,0.00,,,0.23,Wunderground v.1.15,2013-04-10 22:08:00,
2013-04-10 17:14:00,30.1,28.1,29.92,NE,46,0.0,0.0,92,0.00,,,0.23,Wunderground v.1.15,2013-04-10 22:14:00,
2013-04-10 17:19:00,30.2,28.2,29.92,NE,46,0.0,0.0,92,0.00,,,0.23,Wunderground v.1.15,2013-04-10 22:19:00,
2013-04-10 17:24:00,30.2,28.2,29.92,NE,46,0.0,0.0,92,0.00,,,0.23,Wunderground v.1.15,2013-04-10 22:24:00,
2013-04-10 17:29:00,30.2,28.2,29.92,NE,46,0.0,0.0,92,0.00,,,0.23,Wunderground v.1.15,2013-04-10 22:29:00,
2013-04-10 17:34:00,30.2,28.2,29.91,NE,46,0.0,0.0,92,0.00,,,0.23,Wunderground v.1.15,2013-04-10 22:34:00,
2013-04-10 17:39:00,30.2,28.2,29.91,NE,46,0.0,0.0,92,0.00,,,0.23,Wunderground v.1.15,2013-04-10 22:39:00,
2013-04-10 17:44:00,30.2,28.2,29.90,NE,46,0.0,0.0,92,0.00,,,0.23,Wunderground v.1.15,2013-04-10 22:44:00,
2013-04-10 17:49:00,30.2,28.2,29.91,NE,46,0.0,0.0,92,0.00,,,0.23,Wunderground v.1.15,2013-04-10 22:49:00,
2013-04-10 17:54:00,30.2,28.2,29.91,NE,46,0.0,0.0,92,0.00,,,0.23,Wunderground v.1.15,2013-04-10 22:54:00,
2013-04-10 17:59:00,30.3,28.3,29.92,NE,46,0.0,0.0,92,0.00,,,0.23,Wunderground v.1.15,2013-04-10 22:59:00,
2013-04-10 18:04:00,30.3,28.3,29.91,NE,46,0.0,0.0,92,0.00,,,0.23,Wunderground v.1.15,2013-04-10 23:04:00,
2013-04-10 18:09:00,30.3,28.3,29.91,NE,46,0.0,0.0,92,0.00,,,0.23,Wunderground v.1.15,2013-04-10 23:09:00,
2013-04-10 18:14:00,30.3,28.3,29.91,NE,46,0.0,0.0,92,0.00,,,0.23,Wunderground v.1.15,2013-04-10 23:14:00,
2013-04-10 18:19:00,30.3,28.3,29.91,NE,46,0.0,0.0,92,0.00,,,0.23,Wunderground v.1.15,2013-04-10 23:19:00,
2013-04-10 18:24:00,30.4,28.4,29.90,NE,46,0.0,0.0,92,0.00,,,0.23,Wunderground v.1.15,2013-04-10 23:24:00,
2013-04-10 18:29:00,30.4,28.4,29.90,NE,46,0.0,0.0,92,0.00,,,0.23,Wunderground v.1.15,2013-04-10 23:29:00,
2013-04-10 18:34:00,30.5,28.5,29.89,NE,46,0.0,0.0,92,0.00,,,0.23,Wunderground v.1.15,2013-04-10 23:34:00,
2013-04-10 18:39:00,30.5,28.5,29.88,NE,46,0.0,0.0,92,0.00,,,0.23,Wunderground v.1.15,2013-04-10 23:39:00,
2013-04-10 18:45:00,30.5,28.5,29.88,NE,46,0.0,0.0,92,0.00,,,0.23,Wunderground v.1.15,2013-04-10 23:45:00,
2013-04-10 18:50:00,30.5,28.5,29.87,NE,46,0.0,0.0,92,0.00,,,0.23,Wunderground v.1.15,2013-04-10 23:50:00,
2013-04-10 18:55:00,30.6,28.6,29.89,NE,46,0.0,0.0,92,0.00,,,0.23,Wunderground v.1.15,2013-04-10 23:55:00,
2013-04-10 19:00:00,30.7,28.7,29.88,NE,46,0.0,0.0,92,0.00,,,0.23,Wunderground v.1.15,2013-04-11 00:00:00,
2013-04-10 19:05:00,30.8,28.8,29.88,NE,46,0.0,0.0,92,0.00,,,0.23,Wunderground v.1.15,2013-04-11 00:05:00,
2013-04-10 19:10:00,30.8,28.8,29.88,NE,46,0.0,0.0,92,0.00,,,0.23,Wunderground v.1.15,2013-04-11 00:10:00,
2013-04-10 19:15:00,30.8,28.8,29.87,NE,46,0.0,0.0,92,0.00,,,0.23,Wunderground v.1.15,2013-04-11 00:15:00,
2013-04-10 19:20:00,30.8,28.8,29.86,NE,46,0.0,0.0,92,0.00,,,0.23,Wunderground v.1.15,2013-04-11 00:20:00,
2013-04-10 19:25:00,30.7,28.7,29.85,NE,46,0.0,0.0,92,0.00,,,0.23,Wunderground v.1.15,2013-04-11 00:25:00,
2013-04-10 19:30:00,30.8,28.8,29.85,NE,46,0.0,0.0,92,0.00,,,0.23,Wunderground v.1.15,2013-04-11 00:30:00,
2013-04-10 19:35:00,30.7,28.7,29.84,NE,46,0.0,0.0,92,0.00,,,0.23,Wunderground v.1.15,2013-04-11 00:35:00,
2013-04-10 19:40:00,30.7,28.7,29.84,NE,46,0.0,0.0,92,0.00,,,0.23,Wunderground v.1.15,2013-04-11 00:40:00,
2013-04-10 19:45:00,30.7,28.7,29.85,NE,46,0.0,0.0,92,0.00,,,0.23,Wunderground v.1.15,2013-04-11 00:45:00,
2013-04-10 19:50:00,30.7,28.7,29.85,NE,46,0.0,0.0,92,0.00,,,0.23,Wunderground v.1.15,2013-04-11 00:50:00,
2013-04-10 19:56:00,30.7,28.7,29.86,NE,46,0.0,0.0,92,0.00,,,0.23,Wunderground v.1.15,2013-04-11 00:56:00,
2013-04-10 20:02:00,30.8,28.8,29.86,NE,46,0.0,0.0,92,0.00,,,0.23,Wunderground v.1.15,2013-04-11 01:02:00,
2013-04-10 20:07:00,30.8,28.8,29.85,NE,46,0.0,0.0,92,0.00,,,0.23,Wunderground v.1.15,2013-04-11 01:07:00,
2013-04-10 20:12:00,30.9,28.9,29.85,NE,46,0.0,0.0,92,0.00,,,0.23,Wunderground v.1.15,2013-04-11 01:12:00,
2013-04-10 20:17:00,30.9,28.9,29.86,NE,46,0.0,0.0,92,0.00,,,0.23,Wunderground v.1.15,2013-04-11 01:17:00,
2013-04-10 20:22:00,30.9,28.9,29.86,NE,46,0.0,0.0,92,0.00,,,0.23,Wunderground v.1.15,2013-04-11 01:22:00,
2013-04-10 20:27:00,31.0,28.9,29.85,NE,46,0.0,0.0,92,0.00,,,0.23,Wunderground v.1.15,2013-04-11 01:27:00,
2013-04-10 20:32:00,31.0,28.9,29.84,NE,46,0.0,0.0,92,0.00,,,0.23,Wunderground v.1.15,2013-04-11 01:32:00,
2013-04-10 20:37:00,31.0,28.9,29.83,NE,46,0.0,0.0,92,0.00,,,0.23,Wunderground v.1.15,2013-04-11 01:37:00,
2013-04-10 20:42:00,31.0,28.9,29.83,NE,46,0.0,0.0,92,0.00,,,0.23,Wunderground v.1.15,2013-04-11 01:42:00,
2013-04-10 20:47:00,31.0,28.9,29.83,NE,46,0.0,0.0,92,0.00,,,0.23,Wunderground v.1.15,2013-04-11 01:47:00,
2013-04-10 20:52:00,31.0,28.9,29.85,NE,46,0.0,0.0,92,0.00,,,0.23,Wunderground v.1.15,2013-04-11 01:52:00,
2013-04-10 20:57:00,31.0,28.9,29.86,NE,46,0.0,0.0,92,0.00,,,0.23,Wunderground v.1.15,2013-04-11 01:57:00,
2013-04-10 21:02:00,31.0,28.9,29.84,NE,46,0.0,0.0,92,0.00,,,0.23,Wunderground v.1.15,2013-04-11 02:02:00,
2013-04-10 21:08:00,31.0,28.9,29.84,NE,46,0.0,0.0,92,0.00,,,0.23,Wunderground v.1.15,2013-04-11 02:08:00,
2013-04-10 21:13:00,31.1,29.0,29.85,NE,46,0.0,0.0,92,0.00,,,0.23,Wunderground v.1.15,2013-04-11 02:13:00,
2013-04-10 21:18:00,31.1,29.0,29.86,NE,46,0.0,0.0,92,0.00,,,0.23,Wunderground v.1.15,2013-04-11 02:18:00,
2013-04-10 21:23:00,31.1,29.0,29.82,NE,46,0.0,0.0,92,0.00,,,0.23,Wunderground v.1.15,2013-04-11 02:23:00,
2013-04-10 21:28:00,31.1,29.0,29.84,NE,46,0.0,0.0,92,0.00,,,0.23,Wunderground v.1.15,2013-04-11 02:28:00,
2013-04-10 21:33:00,31.2,29.1,29.83,NE,46,0.0,0.0,92,0.00,,,0.23,Wunderground v.1.15,2013-04-11 02:33:00,
2013-04-10 21:38:00,31.2,29.1,29.83,NE,46,0.0,0.0,92,0.00,,,0.23,Wunderground v.1.15,2013-04-11 02:38:00,
2013-04-10 21:43:00,31.2,29.1,29.83,NE,46,0.0,0.0,92,0.00,,,0.23,Wunderground v.1.15,2013-04-11 02:43:00,
2013-04-10 21:48:00,31.3,29.5,29.83,NE,46,0.0,0.0,93,0.00,,,0.23,Wunderground v.1.15,2013-04-11 02:48:00,
2013-04-10 21:53:00,31.3,29.5,29.83,NE,46,0.0,0.0,93,0.00,,,0.23,Wunderground v.1.15,2013-04-11 02:53:00,
2013-04-10 21:58:00,31.4,29.6,29.83,NE,46,0.0,0.0,93,0.00,,,0.23,Wunderground v.1.15,2013-04-11 02:58:00,
2013-04-10 22:03:00,31.4,29.6,29.80,NE,46,0.0,0.0,93,0.00,,,0.23,Wunderground v.1.15,2013-04-11 03:03:00,
2013-04-10 22:08:00,31.4,29.6,29.82,NE,46,0.0,0.0,93,0.00,,,0.23,Wunderground v.1.15,2013-04-11 03:08:00,
2013-04-10 22:13:00,31.4,29.6,29.83,NE,46,0.0,0.0,93,0.00,,,0.23,Wunderground v.1.15,2013-04-11 03:13:00,
2013-04-10 22:18:00,31.5,29.7,29.83,NE,46,0.0,0.0,93,0.00,,,0.23,Wunderground v.1.15,2013-04-11 03:18:00,
2013-04-10 22:23:00,31.4,29.6,29.83,NE,46,0.0,0.0,93,0.00,,,0.23,Wunderground v.1.15,2013-04-11 03:23:00,
2013-04-10 22:28:00,31.5,29.7,29.84,NE,46,0.0,0.0,93,0.00,,,0.23,Wunderground v.1.15,2013-04-11 03:28:00,
2013-04-10 22:33:00,31.5,29.7,29.84,NE,46,0.0,0.0,93,0.00,,,0.23,Wunderground v.1.15,2013-04-11 03:33:00,
2013-04-10 22:38:00,31.5,29.7,29.84,NE,46,0.0,0.0,93,0.00,,,0.23,Wunderground v.1.15,2013-04-11 03:38:00,
2013-04-10 22:43:00,31.5,29.7,29.84,NE,46,0.0,0.0,93,0.00,,,0.23,Wunderground v.1.15,2013-04-11 03:43:00,
2013-04-10 22:48:00,31.5,29.7,29.84,NE,46,0.0,0.0,93,0.00,,,0.23,Wunderground v.1.15,2013-04-11 03:48:00,
2013-04-10 22:53:00,31.5,29.7,29.83,NE,46,0.0,0.0,93,0.00,,,0.23,Wunderground v.1.15,2013-04-11 03:53:00,
2013-04-10 22:58:00,31.5,29.7,29.83,NE,46,0.0,0.0,93,0.00,,,0.23,Wunderground v.1.15,2013-04-11 03:58:00,
2013-04-10 23:00:00,31.5,29.7,29.83,NE,46,0.0,0.0,93,0.00,,,0.23,Wunderground v.1.15,2013-04-11 04:00:00,
2013-04-10 23:02:00,31.5,29.7,29.83,NE,46,0.0,0.0,93,0.00,,,0.23,Wunderground v.1.15,2013-04-11 04:02:00,
2013-04-10 23:07:00,31.5,29.7,29.83,NE,46,0.0,0.0,93,0.00,,,0.23,Wunderground v.1.15,2013-04-11 04:07:00,
2013-04-10 23:12:00,31.5,29.7,29.82,NE,46,0.0,0.0,93,0.00,,,0.23,Wunderground v.1.15,2013-04-11 04:12:00,
2013-04-10 23:17:00,31.5,29.7,29.82,NE,46,0.0,0.0,93,0.00,,,0.23,Wunderground v.1.15,2013-04-11 04:17:00,
2013-04-10 23:22:00,31.5,29.7,29.81,NE,46,0.0,0.0,93,0.00,,,0.23,Wunderground v.1.15,2013-04-11 04:22:00,
2013-04-10 23:27:00,31.5,29.7,29.81,NE,46,0.0,0.0,93,0.00,,,0.23,Wunderground v.1.15,2013-04-11 04:27:00,
2013-04-10 23:32:00,31.5,29.7,29.81,NE,46,0.0,0.0,93,0.00,,,0.23,Wunderground v.1.15,2013-04-11 04:32:00,
2013-04-10 23:37:00,31.5,29.7,29.80,NE,46,0.0,0.0,93,0.00,,,0.23,Wunderground v.1.15,2013-04-11 04:37:00,
2013-04-10 23:42:00,31.6,29.8,29.80,NE,46,0.0,0.0,93,0.00,,,0.23,Wunderground v.1.15,2013-04-11 04:42:00,
2013-04-10 23:47:00,31.6,29.8,29.80,NE,46,0.0,0.0,93,0.00,,,0.23,Wunderground v.1.15,2013-04-11 04:47:00,
2013-04-10 23:52:00,31.6,29.8,29.80,NE,46,0.0,0.0,93,0.00,,,0.23,Wunderground v.1.15,2013-04-11 04:52:00,
2013-04-10 23:57:00,31.6,29.8,29.80,NE,46,0.0,0.0,93,0.00,,,0.23,Wunderground v.1.15,2013-04-11 04:57:00,